Regional Weather Roundup
Issued by NWS

Home | Current Version | Previous Version | Graphics & Text | Print | Product List | Glossary On
Versions: 1 2 3 4 5 6 7 8 9 10 11 12 13 14 15 16 17 18 19 20 21 22 23 24 25 26 27 28 29 30 31 32 33 34 35 36 37 38 39 40 41 42 43 44 45 46 47 48 49
000
ASUS45 KCYS 250110
RWRWY

WYOMING REGIONAL WEATHER ROUNDUP
NATIONAL WEATHER SERVICE CHEYENNE WY
600 PM MST SAT JAN 24 2015

NOTE:  "FAIR" INDICATES FEW OR NO CLOUDS BELOW 12,000 FEET
WITH NO SIGNIFICANT WEATHER AND/OR OBSTRUCTIONS TO VISIBILITY.

WYZ001-250200-
YELLOWSTONE NATIONAL PARK

CITY           SKY/WX    TMP DP  RH WIND       PRES   REMARKS
LK YELLOWSTONE   N/A     25  21  85 CALM      30.33R
W YELLOWSTONE  NOT AVBL

$$
WYZ002>013-054>058-071-098>099-250200-
NORTHERN WYOMING

CITY           SKY/WX    TMP DP  RH WIND       PRES   REMARKS
JACKSON        CLOUDY    27  25  93 N7        30.35R WCI  19
CODY           FAIR      43  25  49 N7        30.14R
GREYBULL       FAIR      22  19  89 CALM      30.15R
WORLAND        FAIR      21  17  84 CALM      30.14R
SHERIDAN       CLOUDY    39  31  72 NW21      30.11R WCI  29
BUFFALO        LGT SNOW  35  30  82 NW32G43   30.11R WCI  21
GILLETTE       FAIR      34  31  88 W17       30.05R WCI  23
HULETT           N/A    N/A N/A N/A MISG        N/A
NEWCASTLE      FAIR      34  32  93 NW15G22   30.00R WCI  24

$$
WYZ014>020-022>026-101>103-250200-
CENTRAL WYOMING

CITY           SKY/WX    TMP DP  RH WIND       PRES   REMARKS
BIG PINEY      FAIR      33  26  75 N12       30.28S WCI  24
PINEDALE       FAIR      30  27  86 NW18      30.26S WCI  18
DUBOIS         FAIR      36  27  69 NW28G39   30.20S WCI  23
LANDER         FAIR      41  27  57 VRB5      30.14R
RIVERTON       FAIR      33  22  63 CALM      30.16R
CASPER         FAIR      34  29  82 N12       30.15R WCI  25
DOUGLAS        MIX PCPN  35  33  92 NW21G32   30.12R WCI  24

$$
WYZ021-027>030-104>119-250200-
SOUTHERN WYOMING

CITY           SKY/WX    TMP DP  RH WIND       PRES   REMARKS
EVANSTON       CLOUDY    32  26  78 SW10      30.39F WCI  24
KEMMERER       CLOUDY    30  27  86 W15       30.35R WCI  19
FORT BRIDGER   MOCLDY    35  30  83 W13G18    30.39R WCI  26
ROCK SPRINGS   FAIR      34  26  72 W31G40    30.27R WCI  20
DIXON          CLOUDY    33  21  62 W6        30.32R WCI  27
RAWLINS        CLOUDY    32  21  64 W21       30.22R WCI  20
SARATOGA       FAIR      32  21  64 W20G26    30.20R WCI  20
LARAMIE        FAIR      33  21  61 W24G31    30.10R WCI  20
CHEYENNE       FAIR      39  23  52 NW16G25   30.05R WCI  30
TORRINGTON     LGT RAIN  42  34  73 NW25G35   30.04R
PINE BLUFFS    FAIR      37  28  70 W28G35    30.02S WCI  25

$$



USA.gov is the U.S. government's official web portal to all federal, state and local government web resources and services.